Погода в Богослове

Россия / Владимирская область     56°09′27″N   40°19′18″E
темп.,
°C
ветер,
м/с
пор.,
м/с
влажн.,
%
обл.,
%
осадки,
мм/ч
давл.,
гПа
погр.,
м
22 апреля, чт
чт2200:00+3ююз4994100 0.0 1012368
03:00+3ююз5895100 0.1 1013566
06:00+3ю5996100 0.1 1014422
09:00+7ююз688180 0.3 1015733
12:00+8ююз6975100 0.1 10161096
15:00+11ююз696231 0.1 10151423
18:00+11ююз596937 0.3 1016612
21:00+7ю412875 0.3 1017255
23 апреля, пт
пт2300:00+6ю4129153 0.0 1017256
03:00+5ю410935 0.0 1017206
06:00+6ю512926 0.0 1016274
09:00+11ю6117170 0.1 1017554
12:00+15ю8114840 0.0 10162286
15:00+15ю7114880 0.0 10152341
18:00+14ююв611545 0.0 1014667
21:00+10ююв513725 0.0 1014337
24 апреля, сб
сб2400:00+8юв5148122 0.1 1012352
03:00+7юв513875 0.1 1010348
06:00+7юв61586100 0.1 1008487
09:00+11ююв81376100 0.5 10061178
12:00+3з5995100 1.5 1008397
15:00+4зсз5887100 2.1 1008640
18:00+6зсз367299 0.1 1008939
21:00+3зюз11855 0.1 100810
25 апреля, вс
вс2500:00+2зюз36885 0.0 100898
03:000зюз48890 0.0 1009158
06:000зюз410844 0.0 1009266
09:00+5зюз68645 0.0 10101039
12:00+8зюз6748100 0.1 10102091
15:00+8юз674689 0.3 10101956
18:00+6зюз576299 1.0 10101032
21:00+3зюз387911 1.1 1012155
26 апреля, пн
пн2600:00+1юз38875 0.0 1013168
03:00−1юз38925 0.0 1014183
06:000юз49835 0.0 1014318
09:00+5юз56625 0.0 1013989
12:00+8юз5644100 0.1 10132296
15:00+9юз5639100 0.1 10122373
18:00+8юз465237 0.0 1011715
21:00+4зюз2268100 0.1 101014